Вернуться в каталог

FENGYUN 1C DEB

АктивенLEO
NORAD 31378·DEBRIS·🇨🇳 China

Запущен May 10, 1999 с Taiyuan Satellite Launch Center

Loading…

Ближайшие Пролёты (ближайшие 24 часа)

TLE

СвежийSource: Space-Track

Эпоха: Sep 13, 2026, 18:53 UTC

1 31378U 99025BSJ 26256.78696801  .00000451  00000-0  43562-3 0  9996
2 31378 100.7453 188.0323 0166657 225.6773 133.0611 13.80530306980182

Отслеживайте FENGYUN 1C DEB в реальном времени с AllMySat

Download on the App Store